DW5338 Weather Reports


Display with metric or nautical units.
time (UTC)temp
F
wind
direction
speed
MPH
gust
MPH
rain 1hr
in
rain 24hr
in
rain mn
in
humidity
%
barometer
mb
20210415113238 21 337 3.0 3.0 0.00 0.00 0.00 100 1014.6
20210415112620 21 337 0.0 1.0 0.00 0.00 0.00 100 1015.0
20210415111331 21 22 0.0 1.0 0.00 0.00 0.00 100 1015.0
20210415110827 21 337 0.0 0.0 0.00 0.00 0.00 100 1014.7
20210415110328 21 337 0.0 0.0 0.00 0.00 0.00 100 1015.1
20210415105944 21 0 0.0 0.0 0.00 0.00 0.00 100 1015.1
20210415105430 21 315 0.0 0.0 0.00 0.00 0.00 100 1014.9
20210415104319 21 45 0.0 2.0 0.00 0.00 0.00 100 1015.2
20210415103821 21 247 0.0 0.0 0.00 0.00 0.00 100 1015.2
20210415103143 22 337 0.0 0.0 0.00 0.00 0.00 100 1015.3
20210415101850 22 180 0.0 1.0 0.00 0.00 0.00 100 1015.4
20210415101317 22 45 0.0 1.0 0.00 0.00 0.00 100 1015.4
20210415100823 21 90 1.0 2.0 0.00 0.00 0.00 100 1015.4
20210415100330 21 22 0.0 3.0 0.00 0.00 0.00 100 1015.4
20210415095905 22 337 0.0 3.0 0.00 0.00 0.00 100 1015.5
20210415094318 22 0 0.0 1.0 0.00 0.00 0.00 100 1015.5
20210415093822 22 112 0.0 0.0 0.00 0.00 0.00 100 1015.9
20210415093420 22 337 0.0 0.0 0.00 0.00 0.00 100 1015.9
20210415093115 22 0 0.0 3.0 0.00 0.00 0.00 100 1015.6
20210415092115 22 337 1.0 3.0 0.00 0.00 0.00 100 1015.6
20210415091320 22 22 0.0 0.0 0.00 0.00 0.00 100 1015.7
20210415090830 22 292 0.0 0.0 0.00 0.00 0.00 100 1015.7
20210415090317 22 45 0.0 3.0 0.00 0.00 0.00 100 1016.0
20210415085943 22 135 3.0 3.0 0.00 0.00 0.00 100 1016.1
20210415085543 22 45 0.0 0.0 0.00 0.00 0.00 100 1015.8
20210415084318 22 0 0.0 1.0 0.00 0.00 0.00 100 1016.1
20210415083834 22 247 0.0 0.0 0.00 0.00 0.00 100 1016.1
20210415083545 22 247 0.0 0.0 0.00 0.00 0.00 100 1016.2
20210415083231 22 225 0.0 0.0 0.00 0.00 0.00 100 1016.5
20210415082935 22 270 0.0 0.0 0.00 0.00 0.00 100 1016.5
20210415082211 22 270 0.0 2.0 0.00 0.00 0.00 100 1016.9
20210415081317 22 202 0.0 0.0 0.00 0.00 0.00 100 1016.9
20210415080817 22 270 0.0 0.0 0.00 0.00 0.00 100 1016.9
20210415080335 22 247 0.0 0.0 0.00 0.00 0.00 100 1017.0
20210415080157 21 270 0.0 0.0 0.00 0.00 0.00 100 1017.0
20210415075402 21 292 0.0 0.0 0.00 0.00 0.00 100 1017.0
20210415074317 21 270 0.0 0.0 0.00 0.00 0.00 100 1017.1
20210415073817 21 225 0.0 0.0 0.00 0.00 0.00 100 1017.4
20210415073323 21 202 0.0 0.0 0.00 0.00 0.00 100 1017.4
20210415072929 21 180 0.0 0.0 0.00 0.00 0.00 100 1017.5
20210415072841 21 202 0.0 0.0 0.00 0.00 0.00 100 1017.5
20210415071618 21 112 0.0 0.0 0.00 0.00 0.00 100 1017.5
20210415071059 21 247 0.0 0.0 0.00 0.00 0.00 100 1017.8
20210415070626 21 315 0.0 0.0 0.00 0.00 0.00 100 1017.8
20210415070059 21 180 0.0 0.0 0.00 0.00 0.00 100 1017.5
20210415065825 21 292 0.0 0.0 0.00 0.00 0.00 100 1017.8
20210415064857 21 315 0.0 0.0 0.00 0.00 0.00 100 1017.8
20210415064317 21 22 0.0 0.0 0.00 0.00 0.00 100 1017.8
20210415063817 21 0 0.0 1.0 0.00 0.00 0.00 100 1017.8
20210415063316 21 45 0.0 1.0 0.00 0.00 0.00 100 1017.8
20210415063058 21 337 0.0 0.0 0.00 0.00 0.00 100 1017.8
20210415062907 21 67 0.0 1.0 0.00 0.00 0.00 100 1017.8
20210415061855 21 315 0.0 1.0 0.00 0.00 0.00 100 1017.8
20210415061322 21 337 0.0 1.0 0.00 0.00 0.00 100 1017.8
20210415060820 21 22 0.0 1.0 0.00 0.00 0.00 100 1017.8
20210415060349 21 270 0.0 4.0 0.00 0.00 0.00 100 1017.5
20210415055919 21 45 3.0 4.0 0.00 0.00 0.00 100 1017.8
20210415055722 21 45 2.0 3.0 0.00 0.00 0.00 100 1017.8
20210415054842 21 315 0.0 3.0 0.00 0.00 0.00 100 1017.8
20210415054316 22 0 0.0 3.0 0.00 0.00 0.00 100 1017.8
20210415053816 22 22 0.0 3.0 0.00 0.00 0.00 100 1017.8
20210415053320 22 90 0.0 3.0 0.00 0.00 0.00 100 1017.8
20210415052825 22 67 3.0 5.0 0.00 0.00 0.00 100 1017.8
20210415052033 22 22 2.0 6.0 0.00 0.00 0.00 100 1017.5
20210415051325 22 67 2.0 5.0 0.00 0.00 0.00 100 1017.8
20210415050821 22 337 0.0 3.0 0.00 0.00 0.00 100 1017.5
20210415050317 23 45 1.0 5.0 0.00 0.00 0.00 100 1017.8
20210415045919 23 45 3.0 4.0 0.00 0.00 0.00 100 1017.8
20210415045752 23 67 4.0 5.0 0.00 0.00 0.00 100 1017.8
20210415044921 23 90 1.0 3.0 0.00 0.00 0.00 100 1018.1
20210415044317 23 45 3.0 5.0 0.00 0.00 0.00 100 1017.8
20210415043819 23 45 5.0 5.0 0.00 0.00 0.00 100 1018.1
20210415043328 24 22 5.0 7.0 0.00 0.00 0.00 100 1017.8
20210415042909 24 90 4.0 5.0 0.00 0.00 0.00 100 1018.1
20210415042021 24 337 2.0 6.0 0.00 0.00 0.00 100 1018.1
20210415041316 25 90 3.0 5.0 0.00 0.00 0.00 100 1018.4
20210415040819 25 90 0.0 3.0 0.00 0.00 0.00 100 1018.4
20210415040318 25 157 2.0 3.0 0.00 0.00 0.00 100 1018.1
20210415035934 25 112 1.0 3.0 0.00 0.00 0.00 100 1018.1
20210415035820 25 112 1.0 3.0 0.00 0.00 0.00 100 1018.4
20210415034929 25 0 0.0 2.0 0.00 0.00 0.00 100 1018.4
20210415034317 25 315 0.0 3.0 0.00 0.00 0.00 100 1018.1
20210415033820 25 45 1.0 3.0 0.00 0.00 0.00 100 1018.4
20210415033318 25 67 1.0 2.0 0.00 0.00 0.00 100 1018.1
20210415032834 25 90 0.0 2.0 0.00 0.00 0.00 100 1018.1
20210415032711 25 135 1.0 3.0 0.00 0.00 0.00 100 1018.1
20210415031847 25 67 1.0 3.0 0.00 0.00 0.00 100 1018.1
20210415031319 25 135 1.0 3.0 0.00 0.00 0.00 100 1018.4
20210415030818 25 67 3.0 3.0 0.00 0.00 0.00 100 1017.8
20210415030317 25 45 0.0 5.0 0.00 0.00 0.00 100 1017.8
20210415025843 25 22 2.0 3.0 0.00 0.00 0.00 100 1017.8
20210415025056 25 22 1.0 3.0 0.00 0.00 0.00 100 1018.1
20210415024317 25 22 0.0 1.0 0.00 0.00 0.00 100 1017.8
20210415023824 25 45 0.0 3.0 0.00 0.00 0.00 100 1017.5
20210415023317 25 22 1.0 2.0 0.00 0.00 0.00 100 1017.5
20210415022824 25 22 1.0 1.0 0.00 0.00 0.00 100 1017.5
20210415022618 25 22 1.0 3.0 0.00 0.00 0.00 100 1017.8
20210415021948 25 45 0.0 3.0 0.00 0.00 0.00 100 1017.5
20210415021317 25 45 1.0 3.0 0.00 0.00 0.00 100 1017.2
20210415020817 25 0 2.0 3.0 0.00 0.00 0.00 100 1016.9
20210415020311 26 0 1.0 1.0 0.00 0.00 0.00 100 1017.2
20210415020124 26 315 0.0 0.0 0.00 0.00 0.00 100 1017.6
20210415015225 26 0 0.0 0.0 0.00 0.00 0.00 100 1017.3
20210415014322 26 337 0.0 0.0 0.00 0.00 0.00 100 1017.3
20210415013836 26 292 0.0 0.0 0.00 0.00 0.00 100 1017.3
20210415013238 26 315 0.0 0.0 0.00 0.00 0.00 100 1016.9
20210415012552 26 292 0.0 0.0 0.00 0.00 0.00 100 1016.9
20210415011336 25 247 0.0 0.0 0.00 0.00 0.00 100 1016.9
20210415010903 25 315 0.0 0.0 0.00 0.00 0.00 100 1016.6
20210415010329 25 0 0.0 0.0 0.00 0.00 0.00 100 1016.6
20210415005111 25 247 0.0 5.0 0.00 0.00 0.00 100 1016.3
20210415004319 25 247 0.0 2.0 0.00 0.00 0.00 100 1016.6
20210415003822 25 180 1.0 4.0 0.00 0.00 0.00 100 1016.6
20210415003319 25 202 3.0 5.0 0.00 0.00 0.00 100 1016.6
20210415003126 24 202 1.0 5.0 0.00 0.00 0.00 100 1016.5
20210415002920 24 247 2.0 5.0 0.00 0.00 0.00 100 1016.2
20210415001542 24 292 3.0 4.0 0.00 0.00 0.00 100 1016.5
20210415001120 24 247 2.0 3.0 0.00 0.00 0.00 100 1016.5
20210415000749 24 270 0.0 3.0 0.00 0.00 0.00 100 1016.2
20210415000309 24 180 0.0 3.0 0.00 0.00 0.00 100 1016.1
20210414235958 24 337 0.0 3.0 0.00 0.00 0.00 100 1016.1
20210414235256 24 270 2.0 4.0 0.00 0.00 0.00 100 1016.1
20210414234442 24 292 3.0 5.0 0.00 0.00 0.00 100 1015.7
20210414233921 24 247 0.0 1.0 0.00 0.00 0.00 100 1016.0
20210414233344 23 247 2.0 2.0 0.00 0.00 0.00 100 1016.0
20210414233028 23 225 0.0 1.0 0.00 0.00 0.00 100 1015.9
20210414232801 23 270 1.0 3.0 0.00 0.00 0.00 100 1015.9
20210414231908 23 292 0.0 0.0 0.00 0.00 0.00 100 1015.8
20210414231325 23 292 0.0 2.0 0.00 0.00 0.00 100 1015.8
20210414230819 23 315 0.0 0.0 0.00 0.00 0.00 100 1015.8
20210414230317 23 337 0.0 0.0 0.00 0.00 0.00 100 1015.7
20210414225957 23 270 0.0 2.0 0.00 0.00 0.00 100 1015.7
20210414225841 23 315 0.0 2.0 0.00 0.00 0.00 100 1015.7
20210414224930 23 315 0.0 1.0 0.00 0.00 0.00 100 1015.6
20210414224317 23 315 0.0 0.0 0.00 0.00 0.00 100 1015.6
20210414223816 23 157 0.0 0.0 0.00 0.00 0.00 100 1015.6
20210414223318 23 292 0.0 0.0 0.00 0.00 0.00 100 1015.8
20210414222916 23 315 0.0 1.0 0.00 0.00 0.00 100 1015.8
20210414222715 23 22 0.0 1.0 0.00 0.00 0.00 100 1015.8
20210414221932 23 315 1.0 3.0 0.00 0.00 0.00 100 1016.1
20210414221429 23 315 0.0 0.0 0.00 0.00 0.00 100 1015.7
20210414220905 23 202 0.0 0.0 0.00 0.00 0.00 100 1015.7
20210414220318 23 22 0.0 2.0 0.00 0.00 0.00 100 1015.7
20210414215905 23 135 0.0 1.0 0.00 0.00 0.00 100 1015.6
20210414215631 23 45 0.0 2.0 0.00 0.00 0.00 100 1015.6
20210414214851 23 292 1.0 3.0 0.00 0.00 0.00 100 1015.6
20210414214316 23 0 1.0 3.0 0.00 0.00 0.00 100 1015.6
20210414213817 23 45 3.0 5.0 0.00 0.00 0.00 100 1015.9
20210414213319 23 45 2.0 4.0 0.00 0.00 0.00 100 1015.8
20210414213033 23 292 0.0 5.0 0.00 0.00 0.00 100 1015.8
20210414212926 23 45 3.0 4.0 0.00 0.00 0.00 100 1015.5
20210414212110 23 0 0.0 5.0 0.00 0.00 0.00 100 1015.8
20210414211316 23 45 2.0 5.0 0.00 0.00 0.00 100 1015.7
20210414210817 23 292 1.0 6.0 0.00 0.00 0.00 100 1015.7
20210414210317 23 292 1.0 6.0 0.00 0.00 0.00 99 1015.7
20210414205916 23 45 3.0 4.0 0.00 0.00 0.00 100 1015.4
20210414205709 24 292 2.0 3.0 0.00 0.00 0.00 100 1015.3
20210414204845 24 22 2.0 5.0 0.00 0.00 0.00 100 1015.6
20210414204321 24 67 4.0 5.0 0.00 0.00 0.00 100 1015.6
20210414203834 24 22 3.0 6.0 0.00 0.00 0.00 99 1015.6
20210414203316 24 337 1.0 3.0 0.00 0.00 0.00 100 1015.6
20210414203029 24 0 3.0 6.0 0.00 0.00 0.00 99 1015.5
20210414202856 24 225 3.0 8.0 0.00 0.00 0.00 99 1015.8
20210414201954 24 22 5.0 8.0 0.00 0.00 0.00 99 1015.8
20210414201320 24 0 3.0 6.0 0.00 0.00 0.00 99 1015.8
20210414200817 25 67 5.0 8.0 0.00 0.00 0.00 99 1015.7
20210414200316 25 292 0.0 6.0 0.00 0.00 0.00 99 1015.4
20210414195912 25 22 0.0 5.0 0.00 0.00 0.00 99 1015.4
20210414195829 25 67 4.0 6.0 0.00 0.00 0.00 100 1015.7
20210414194826 25 90 3.0 6.0 0.00 0.00 0.00 100 1015.7
20210414194317 25 135 2.0 6.0 0.00 0.00 0.00 100 1015.9
20210414193816 25 22 1.0 5.0 0.00 0.00 0.00 100 1015.9
20210414193321 25 90 3.0 6.0 0.00 0.00 0.00 99 1015.9
20210414192954 25 202 1.0 7.0 0.00 0.00 0.00 99 1016.2
20210414192628 25 45 4.0 7.0 0.00 0.00 0.00 99 1016.2
20210414191858 26 0 2.0 5.0 0.00 0.00 0.00 99 1015.9
20210414191316 26 22 2.0 6.0 0.00 0.00 0.00 99 1015.9
20210414190820 26 22 1.0 5.0 0.00 0.00 0.00 99 1015.9
20210414190317 27 0 3.0 5.0 0.00 0.00 0.00 100 1015.8
20210414190023 27 202 1.0 3.0 0.00 0.00 0.00 100 1016.2
20210414185748 27 22 3.0 5.0 0.00 0.00 0.00 100 1015.8
20210414185020 27 90 3.0 4.0 0.00 0.00 0.00 100 1016.2
20210414184317 26 247 1.0 4.0 0.00 0.00 0.00 100 1016.1
20210414183838 26 90 3.0 5.0 0.00 0.00 0.00 100 1016.1
20210414183317 25 135 0.0 5.0 0.00 0.00 0.00 100 1016.1
20210414183044 25 112 3.0 4.0 0.00 0.00 0.00 100 1016.1
20210414182849 25 90 3.0 4.0 0.00 0.00 0.00 100 1016.1
20210414181919 24 270 1.0 3.0 0.00 0.00 0.00 100 1016.1
20210414181321 23 180 0.0 3.0 0.00 0.00 0.00 100 1016.1
20210414180837 23 292 0.0 2.0 0.00 0.00 0.00 100 1016.1
20210414180348 22 90 1.0 2.0 0.00 0.00 0.00 100 1016.1
20210414180126 22 315 0.0 2.0 0.00 0.00 0.00 100 1016.5
20210414175845 21 292 0.0 1.0 0.00 0.00 0.00 100 1016.5
20210414175052 21 157 0.0 0.0 0.00 0.00 0.00 100 1016.5
20210414174317 20 22 0.0 1.0 0.00 0.00 0.00 100 1016.5
20210414173817 20 225 0.0 0.0 0.00 0.00 0.00 100 1016.5
20210414173317 19 22 0.0 1.0 0.00 0.00 0.00 100 1016.5
20210414172935 19 292 0.0 1.0 0.00 0.00 0.00 100 1016.5
20210414172748 18 45 0.0 1.0 0.00 0.00 0.00 100 1016.5
20210414171953 18 67 0.0 1.0 0.00 0.00 0.00 100 1016.5
20210414171325 18 247 0.0 2.0 0.00 0.00 0.00 100 1016.5
20210414170828 17 90 1.0 2.0 0.00 0.00 0.00 100 1016.5
20210414170550 17 315 0.0 1.0 0.00 0.00 0.00 100 1016.5
20210414170147 17 45 1.0 1.0 0.00 0.00 0.00 100 1016.2
20210414165924 17 0 0.0 4.0 0.00 0.00 0.00 100 1016.2
20210414165113 17 22 3.0 5.0 0.00 0.00 0.00 100 1016.2
20210414164318 17 67 0.0 3.0 0.00 0.00 0.00 100 1016.2
20210414163820 17 22 2.0 4.0 0.00 0.00 0.00 100 1016.2
20210414163327 17 45 1.0 4.0 0.00 0.00 0.00 100 1016.2
20210414163113 17 0 2.0 5.0 0.00 0.00 0.00 100 1016.2
20210414162909 17 67 1.0 4.0 0.00 0.00 0.00 100 1016.2
20210414161950 18 45 0.0 2.0 0.00 0.00 0.00 100 1015.9
20210414161323 18 45 0.0 4.0 0.00 0.00 0.00 100 1016.2
20210414160842 18 112 1.0 5.0 0.00 0.00 0.00 100 1015.9
20210414160318 18 22 1.0 2.0 0.00 0.00 0.00 100 1015.9
20210414160036 18 67 1.0 3.0 0.00 0.00 0.00 100 1015.9
20210414155825 18 112 1.0 5.0 0.00 0.00 0.00 100 1016.3
20210414155040 17 180 0.0 2.0 0.00 0.00 0.00 100 1016.0
20210414154316 17 337 0.0 0.0 0.00 0.00 0.00 100 1016.0
20210414153822 17 292 0.0 0.0 0.00 0.00 0.00 100 1016.0
20210414153342 17 315 0.0 0.0 0.00 0.00 0.00 100 1016.0
20210414153049 17 315 0.0 1.0 0.00 0.00 0.00 100 1016.0
20210414152825 17 315 0.0 1.0 0.00 0.00 0.00 100 1016.0
20210414151853 17 337 0.0 0.0 0.00 0.00 0.00 100 1016.0
20210414151325 17 292 0.0 1.0 0.00 0.00 0.00 100 1016.0
20210414150822 17 292 0.0 1.0 0.00 0.00 0.00 100 1016.3
20210414150322 16 225 0.0 1.0 0.00 0.00 0.00 100 1016.0
20210414150030 16 22 0.0 0.0 0.00 0.00 0.00 100 1016.3
20210414145831 16 0 0.0 0.0 0.00 0.00 0.00 100 1016.3
20210414145036 16 67 0.0 0.0 0.00 0.00 0.00 100 1016.0
20210414144322 16 270 0.0 0.0 0.00 0.00 0.00 100 1016.3
20210414143837 16 315 0.0 0.0 0.00 0.00 0.00 100 1016.0
20210414143317 16 292 0.0 0.0 0.00 0.00 0.00 100 1016.3
20210414142940 16 337 0.0 0.0 0.00 0.00 0.00 100 1016.0
20210414142746 16 45 0.0 0.0 0.00 0.00 0.00 100 1016.3
20210414141947 16 247 0.0 2.0 0.00 0.00 0.00 100 1016.3
20210414141316 15 45 1.0 1.0 0.00 0.00 0.00 100 1016.3
20210414140823 15 67 1.0 3.0 0.00 0.00 0.00 100 1016.3
20210414140316 15 67 0.0 4.0 0.00 0.00 0.00 100 1017.0
20210414140042 15 67 2.0 5.0 0.00 0.00 0.00 100 1016.3
20210414135939 15 45 4.0 5.0 0.00 0.00 0.00 100 1016.7
20210414135031 15 67 1.0 5.0 0.00 0.00 0.00 100 1016.7
20210414134317 16 67 4.0 6.0 0.00 0.00 0.00 100 1016.7
20210414133819 16 22 2.0 5.0 0.00 0.00 0.00 100 1016.7
20210414133447 16 22 2.0 5.0 0.00 0.00 0.00 100 1016.7
20210414133108 16 45 3.0 5.0 0.00 0.00 0.00 100 1017.0
20210414132854 16 45 1.0 3.0 0.00 0.00 0.00 100 1017.0
20210414132030 16 22 3.0 4.0 0.00 0.00 0.00 100 1017.0
20210414131317 16 22 3.0 5.0 0.00 0.00 0.00 100 1017.4
20210414131054 16 22 2.0 4.0 0.00 0.00 0.00 100 1017.4
20210414130739 17 45 2.0 4.0 0.00 0.00 0.00 100 1017.7
20210414130312 17 67 3.0 5.0 0.00 0.00 0.00 100 1017.7
20210414130030 17 0 0.0 4.0 0.00 0.00 0.00 100 1017.7
20210414124931 17 45 0.0 5.0 0.00 0.00 0.00 100 1018.0
20210414124318 18 90 1.0 5.0 0.00 0.00 0.00 100 1018.0
20210414123819 18 45 0.0 5.0 0.00 0.00 0.00 100 1018.0
20210414123316 18 90 3.0 5.0 0.00 0.00 0.00 100 1018.0
20210414122952 18 45 0.0 5.0 0.00 0.00 0.00 100 1018.0
20210414122756 18 22 3.0 5.0 0.00 0.00 0.00 100 1018.0
20210414122057 18 67 2.0 5.0 0.00 0.00 0.00 100 1018.4
20210414121316 18 292 0.0 3.0 0.00 0.00 0.00 100 1018.4
20210414120824 18 67 1.0 1.0 0.00 0.00 0.00 100 1018.7
20210414120326 18 90 0.0 0.0 0.00 0.00 0.00 100 1018.4
20210414115836 18 315 0.0 0.0 0.00 0.00 0.00 100 1018.8
20210414115720 18 180 0.0 0.0 0.00 0.00 0.00 100 1018.8
20210414114900 19 292 0.0 0.0 0.00 0.00 0.00 100 1018.8
20210414114317 19 225 0.0 0.0 0.00 0.00 0.00 100 1019.2
20210414113819 18 225 0.0 0.0 0.00 0.00 0.00 100 1019.2